Location: Praha
(50.0830°N, 14.4670°E)
Time: 21:46:53
(UTC+02:00)

ISS - Pass Details

Date: 20 September 2019
Orbit: 411 x 421 km, 51.6° (Epoch: 19 September)

Event Time Altitude Azimuth Distance (km) Brightness Sun altitude
Rises 19:47:44 0° 195° (SSW) 2,331 0.1 -7.5°
Reaches altitude 10° 19:50:42 10° 166° (SSE) 1,474 -1.2 -8.0°
Maximum altitude 19:52:16 13° 137° (SE) 1,314 -1.7 -8.3°
Enters shadow 19:53:26 11° 115° (ESE) 1,408 -1.7 -8.4°
